Year,Month,Day,Hour,Minute,Value (Times are PST for temperature in C)
2008,05,16,00,00,8.60
2008,05,16,00,01,8.60
2008,05,16,00,02,8.60
2008,05,16,00,03,8.50
2008,05,16,00,04,8.50
2008,05,16,00,05,8.50
2008,05,16,00,06,8.40
2008,05,16,00,07,8.40
2008,05,16,00,08,8.40
2008,05,16,00,09,8.40
2008,05,16,00,10,8.30
2008,05,16,00,11,8.30
2008,05,16,00,12,8.30
2008,05,16,00,13,8.20
2008,05,16,00,14,8.20
2008,05,16,00,15,8.20
2008,05,16,00,16,8.20
2008,05,16,00,17,8.10
2008,05,16,00,18,8.10
2008,05,16,00,19,8.10
2008,05,16,00,20,8.10
2008,05,16,00,21,8.10
2008,05,16,00,22,8.00
2008,05,16,00,23,8.00
2008,05,16,00,24,7.90
2008,05,16,00,25,7.90
2008,05,16,00,26,7.90
2008,05,16,00,27,7.90
2008,05,16,00,28,7.90
2008,05,16,00,29,7.80
2008,05,16,00,30,7.80
2008,05,16,00,31,7.80
2008,05,16,00,32,7.80
2008,05,16,00,33,7.80
2008,05,16,00,34,7.70
2008,05,16,00,35,7.70
2008,05,16,00,36,7.70
2008,05,16,00,37,7.70
2008,05,16,00,38,7.70
2008,05,16,00,39,7.70
2008,05,16,00,40,7.70
2008,05,16,00,41,7.70
2008,05,16,00,42,7.70
2008,05,16,00,43,7.70
2008,05,16,00,44,7.60
2008,05,16,00,45,7.60
2008,05,16,00,46,7.60
2008,05,16,00,47,7.60
2008,05,16,00,48,7.60
2008,05,16,00,49,7.60
2008,05,16,00,50,7.50
2008,05,16,00,51,7.50
2008,05,16,00,52,7.50
2008,05,16,00,53,7.40
2008,05,16,00,54,7.40
2008,05,16,00,55,7.40
2008,05,16,00,56,7.40
2008,05,16,00,57,7.30
2008,05,16,00,58,7.30
2008,05,16,00,59,7.30
2008,05,16,01,00,7.30
2008,05,16,01,01,7.20
2008,05,16,01,02,7.20
2008,05,16,01,03,7.20
2008,05,16,01,04,7.20
2008,05,16,01,05,7.20
2008,05,16,01,06,7.20
2008,05,16,01,07,7.20
2008,05,16,01,08,7.20
2008,05,16,01,09,7.20
2008,05,16,01,10,7.20
2008,05,16,01,11,7.20
2008,05,16,01,12,7.10
2008,05,16,01,13,7.10
2008,05,16,01,14,7.10
2008,05,16,01,15,7.10
2008,05,16,01,16,7.10
2008,05,16,01,17,7.10
2008,05,16,01,18,7.10
2008,05,16,01,19,7.10
2008,05,16,01,20,7.00
2008,05,16,01,21,7.00
2008,05,16,01,22,7.00
2008,05,16,01,23,7.00
2008,05,16,01,24,7.00
2008,05,16,01,25,6.90
2008,05,16,01,26,6.90
2008,05,16,01,27,6.90
2008,05,16,01,28,6.90
2008,05,16,01,29,6.90
2008,05,16,01,30,6.90
2008,05,16,01,31,6.90
2008,05,16,01,32,6.90
2008,05,16,01,33,6.80
2008,05,16,01,34,6.80
2008,05,16,01,35,6.80
2008,05,16,01,36,6.80
2008,05,16,01,37,6.80
2008,05,16,01,38,6.80
2008,05,16,01,39,6.80
2008,05,16,01,40,6.80
2008,05,16,01,41,6.80
2008,05,16,01,42,6.70
2008,05,16,01,43,6.70
2008,05,16,01,44,6.70
2008,05,16,01,45,6.70
2008,05,16,01,46,6.70
2008,05,16,01,47,6.70
2008,05,16,01,48,6.70
2008,05,16,01,49,6.70
2008,05,16,01,50,6.70
2008,05,16,01,51,6.60
2008,05,16,01,52,6.60
2008,05,16,01,53,6.60
2008,05,16,01,54,6.60
2008,05,16,01,55,6.60
2008,05,16,01,56,6.50
2008,05,16,01,57,6.50
2008,05,16,01,58,6.50
2008,05,16,01,59,6.50
2008,05,16,02,00,6.40
2008,05,16,02,01,6.40
2008,05,16,02,02,6.40
2008,05,16,02,03,6.40
2008,05,16,02,04,6.40
2008,05,16,02,05,6.40
2008,05,16,02,06,6.40
2008,05,16,02,07,6.40
2008,05,16,02,08,6.30
2008,05,16,02,09,6.30
2008,05,16,02,10,6.30
2008,05,16,02,11,6.30
2008,05,16,02,12,6.30
2008,05,16,02,13,6.30
2008,05,16,02,14,6.30
2008,05,16,02,15,6.30
2008,05,16,02,16,6.30
2008,05,16,02,17,6.20
2008,05,16,02,18,6.20
2008,05,16,02,19,6.20
2008,05,16,02,20,6.20
2008,05,16,02,21,6.20
2008,05,16,02,22,6.20
2008,05,16,02,23,6.20
2008,05,16,02,24,6.20
2008,05,16,02,25,6.20
2008,05,16,02,26,6.20
2008,05,16,02,27,6.10
2008,05,16,02,28,6.10
2008,05,16,02,29,6.10
2008,05,16,02,30,6.10
2008,05,16,02,31,6.10
2008,05,16,02,32,6.10
2008,05,16,02,33,6.10
2008,05,16,02,34,6.10
2008,05,16,02,35,6.10
2008,05,16,02,36,6.10
2008,05,16,02,37,6.10
2008,05,16,02,38,6.00
2008,05,16,02,39,6.00
2008,05,16,02,40,6.00
2008,05,16,02,41,6.00
2008,05,16,02,42,6.00
2008,05,16,02,43,6.00
2008,05,16,02,44,6.00
2008,05,16,02,45,5.90
2008,05,16,02,46,5.90
2008,05,16,02,47,5.90
2008,05,16,02,48,5.90
2008,05,16,02,49,5.90
2008,05,16,02,50,5.90
2008,05,16,02,51,5.90
2008,05,16,02,52,5.90
2008,05,16,02,53,5.90
2008,05,16,02,54,5.90
2008,05,16,02,55,5.90
2008,05,16,02,56,5.90
2008,05,16,02,57,5.80
2008,05,16,02,58,5.80
2008,05,16,02,59,5.80
2008,05,16,03,00,5.80
2008,05,16,03,01,5.80
2008,05,16,03,02,5.80
2008,05,16,03,03,5.80
2008,05,16,03,04,5.80
2008,05,16,03,05,5.80
2008,05,16,03,06,5.80
2008,05,16,03,07,5.80
2008,05,16,03,08,5.80
2008,05,16,03,09,5.80
2008,05,16,03,10,5.80
2008,05,16,03,11,5.70
2008,05,16,03,12,5.70
2008,05,16,03,13,5.70
2008,05,16,03,14,5.70
2008,05,16,03,15,5.70
2008,05,16,03,16,5.70
2008,05,16,03,17,5.70
2008,05,16,03,18,5.70
2008,05,16,03,19,5.70
2008,05,16,03,20,5.70
2008,05,16,03,21,5.70
2008,05,16,03,22,5.70
2008,05,16,03,23,5.70
2008,05,16,03,24,5.70
2008,05,16,03,25,5.70
2008,05,16,03,26,5.70
2008,05,16,03,27,5.70
2008,05,16,03,28,5.70
2008,05,16,03,29,5.70
2008,05,16,03,30,5.60
2008,05,16,03,31,5.60
2008,05,16,03,32,5.60
2008,05,16,03,33,5.60
2008,05,16,03,34,5.60
2008,05,16,03,35,5.60
2008,05,16,03,36,5.60
2008,05,16,03,37,5.60
2008,05,16,03,38,5.60
2008,05,16,03,39,5.60
2008,05,16,03,40,5.60
2008,05,16,03,41,5.60
2008,05,16,03,42,5.60
2008,05,16,03,43,5.60
2008,05,16,03,44,5.60
2008,05,16,03,45,5.60
2008,05,16,03,46,5.60
2008,05,16,03,47,5.60
2008,05,16,03,48,5.60
2008,05,16,03,49,5.60
2008,05,16,03,50,5.60
2008,05,16,03,51,5.60
2008,05,16,03,52,5.50
2008,05,16,03,53,5.50
2008,05,16,03,54,5.50
2008,05,16,03,55,5.50
2008,05,16,03,56,5.50
2008,05,16,03,57,5.50
2008,05,16,03,58,5.40
2008,05,16,03,59,5.40
2008,05,16,04,00,5.40
2008,05,16,04,01,5.40
2008,05,16,04,02,5.40
2008,05,16,04,03,5.40
2008,05,16,04,04,5.40
2008,05,16,04,05,5.40
2008,05,16,04,06,5.40
2008,05,16,04,07,5.40
2008,05,16,04,08,5.40
2008,05,16,04,09,5.40
2008,05,16,04,10,5.40
2008,05,16,04,11,5.40
2008,05,16,04,12,5.40
2008,05,16,04,13,5.40
2008,05,16,04,14,5.40
2008,05,16,04,15,5.40
2008,05,16,04,16,5.30
2008,05,16,04,17,5.40
2008,05,16,04,18,5.30
2008,05,16,04,19,5.40
2008,05,16,04,20,5.40
2008,05,16,04,21,5.40
2008,05,16,04,22,5.40
2008,05,16,04,23,5.30
2008,05,16,04,24,5.30
2008,05,16,04,25,5.30
2008,05,16,04,26,5.30
2008,05,16,04,27,5.30
2008,05,16,04,28,5.30
2008,05,16,04,29,5.30
2008,05,16,04,30,5.30
2008,05,16,04,31,5.30
2008,05,16,04,32,5.30
2008,05,16,04,33,5.30
2008,05,16,04,34,5.30
2008,05,16,04,35,5.30
2008,05,16,04,36,5.30
2008,05,16,04,37,5.30
2008,05,16,04,38,5.30
2008,05,16,04,39,5.20
2008,05,16,04,40,5.20
2008,05,16,04,41,5.20
2008,05,16,04,42,5.20
2008,05,16,04,43,5.20
2008,05,16,04,44,5.20
2008,05,16,04,45,5.20
2008,05,16,04,46,5.20
2008,05,16,04,47,5.20
2008,05,16,04,48,5.20
2008,05,16,04,49,5.20
2008,05,16,04,50,5.20
2008,05,16,04,51,5.20
2008,05,16,04,52,5.20
2008,05,16,04,53,5.20
2008,05,16,04,54,5.20
2008,05,16,04,55,5.20
2008,05,16,04,56,5.20
2008,05,16,04,57,5.20
2008,05,16,04,58,5.20
2008,05,16,04,59,5.20
2008,05,16,05,00,5.20
2008,05,16,05,01,5.20
2008,05,16,05,02,5.20
2008,05,16,05,03,5.20
2008,05,16,05,04,5.10
2008,05,16,05,05,5.10
2008,05,16,05,06,5.10
2008,05,16,05,07,5.10
2008,05,16,05,08,5.10
2008,05,16,05,09,5.10
2008,05,16,05,10,5.10
2008,05,16,05,11,5.10
2008,05,16,05,12,5.10
2008,05,16,05,13,5.10
2008,05,16,05,14,5.10
2008,05,16,05,15,5.10
2008,05,16,05,16,5.10
2008,05,16,05,17,5.10
2008,05,16,05,18,5.10
2008,05,16,05,19,5.10
2008,05,16,05,20,5.10
2008,05,16,05,21,5.10
2008,05,16,05,22,5.10
2008,05,16,05,23,5.10
2008,05,16,05,24,5.10
2008,05,16,05,25,5.10
2008,05,16,05,26,5.10
2008,05,16,05,27,5.10
2008,05,16,05,28,5.10
2008,05,16,05,29,5.10
2008,05,16,05,30,5.10
2008,05,16,05,31,5.10
2008,05,16,05,32,5.10
2008,05,16,05,33,5.10
2008,05,16,05,34,5.10
2008,05,16,05,35,5.10
2008,05,16,05,36,5.10
2008,05,16,05,37,5.10
2008,05,16,05,38,5.10
2008,05,16,06,28,5.00
2008,05,16,06,29,5.00
2008,05,16,06,30,5.10
2008,05,16,06,31,5.10
2008,05,16,06,32,5.10
2008,05,16,06,33,5.10
2008,05,16,06,34,5.10
2008,05,16,06,35,5.10
2008,05,16,06,36,5.10
2008,05,16,06,37,5.10
2008,05,16,06,38,5.10
2008,05,16,06,39,5.10
2008,05,16,06,40,5.10
2008,05,16,06,41,5.10
2008,05,16,06,42,5.10
2008,05,16,06,43,5.10
2008,05,16,06,44,5.10
2008,05,16,06,45,5.20
2008,05,16,06,46,5.20
2008,05,16,06,47,5.20
2008,05,16,06,48,5.20
2008,05,16,06,49,5.20
2008,05,16,06,50,5.20
2008,05,16,06,51,5.20
2008,05,16,06,52,5.30
2008,05,16,06,53,5.30
2008,05,16,06,54,5.30
2008,05,16,06,55,5.30
2008,05,16,06,56,5.30
2008,05,16,06,57,5.30
2008,05,16,06,58,5.30
2008,05,16,06,59,5.30
2008,05,16,07,00,5.40
2008,05,16,07,01,5.40
2008,05,16,07,02,5.40
2008,05,16,07,03,5.40
2008,05,16,07,04,5.50
2008,05,16,07,05,5.50
2008,05,16,07,06,5.60
2008,05,16,07,07,5.60
2008,05,16,07,08,5.60
2008,05,16,07,09,5.60
2008,05,16,07,10,5.70
2008,05,16,07,11,5.70
2008,05,16,07,12,5.70
2008,05,16,07,13,5.80
2008,05,16,07,14,5.80
2008,05,16,07,15,5.80
2008,05,16,07,16,5.90
2008,05,16,07,17,6.00
2008,05,16,07,18,6.00
2008,05,16,07,19,6.10
2008,05,16,07,20,6.20
2008,05,16,07,21,6.20
2008,05,16,07,22,6.30
2008,05,16,07,23,6.30
2008,05,16,07,24,6.40
2008,05,16,07,25,6.40
2008,05,16,07,26,6.50
2008,05,16,07,27,6.60
2008,05,16,07,28,6.60
2008,05,16,07,29,6.70
2008,05,16,07,30,6.80
2008,05,16,07,31,6.80
2008,05,16,07,32,6.90
2008,05,16,07,33,7.00
2008,05,16,07,34,7.00
2008,05,16,07,35,7.10
2008,05,16,07,36,7.10
2008,05,16,07,37,7.20
2008,05,16,07,38,7.20
2008,05,16,07,39,7.20
2008,05,16,07,40,7.30
2008,05,16,07,41,7.30
2008,05,16,07,42,7.40
2008,05,16,07,43,7.50
2008,05,16,07,44,7.60
2008,05,16,07,45,7.70
2008,05,16,07,46,7.80
2008,05,16,07,47,7.90
2008,05,16,07,48,8.00
2008,05,16,07,49,8.20
2008,05,16,07,50,8.30
2008,05,16,07,51,8.40
2008,05,16,07,52,8.50
2008,05,16,07,53,8.60
2008,05,16,07,54,8.80
2008,05,16,07,55,8.90
2008,05,16,07,56,9.00
2008,05,16,07,57,9.10
2008,05,16,07,58,9.20
2008,05,16,07,59,9.30
2008,05,16,08,00,9.40
2008,05,16,08,01,9.60
2008,05,16,08,02,9.70
2008,05,16,08,03,9.80
2008,05,16,08,04,9.90
2008,05,16,08,05,10.00
2008,05,16,08,06,10.20
2008,05,16,08,07,10.30
2008,05,16,08,08,10.40
2008,05,16,08,09,10.50
2008,05,16,08,10,10.60
2008,05,16,08,11,10.80
2008,05,16,08,12,10.80
2008,05,16,08,13,10.90
2008,05,16,08,14,11.10
2008,05,16,08,15,11.20
2008,05,16,08,16,11.30
2008,05,16,08,17,11.50
2008,05,16,08,18,11.60
2008,05,16,08,19,11.70
2008,05,16,08,20,11.80
2008,05,16,08,21,12.00
2008,05,16,08,22,12.10
2008,05,16,08,23,12.30
2008,05,16,08,24,12.30
2008,05,16,08,25,12.40
2008,05,16,08,26,12.50
2008,05,16,08,27,12.70
2008,05,16,08,28,12.70
2008,05,16,08,29,12.80
2008,05,16,08,30,12.90
2008,05,16,08,31,13.00
2008,05,16,08,32,13.00
2008,05,16,08,33,13.10
2008,05,16,08,34,13.20
2008,05,16,08,35,13.20
2008,05,16,08,36,13.20
2008,05,16,08,37,13.30
2008,05,16,08,38,13.30
2008,05,16,08,39,13.40
2008,05,16,08,40,13.50
2008,05,16,08,41,13.50
2008,05,16,08,42,13.60
2008,05,16,08,43,13.60
2008,05,16,08,44,13.60
2008,05,16,08,45,13.60
2008,05,16,08,46,13.60
2008,05,16,08,47,13.60
2008,05,16,08,48,13.70
2008,05,16,08,49,13.70
2008,05,16,08,50,13.80
2008,05,16,08,51,13.80
2008,05,16,08,52,13.80
2008,05,16,08,53,13.90
2008,05,16,08,54,13.90
2008,05,16,08,55,14.00
2008,05,16,08,56,14.10
2008,05,16,08,57,14.10
2008,05,16,08,58,14.20
2008,05,16,08,59,14.20
2008,05,16,09,00,14.30
2008,05,16,09,01,14.40
2008,05,16,09,02,14.50
2008,05,16,09,03,14.60
2008,05,16,09,04,14.70
2008,05,16,09,05,14.80
2008,05,16,09,06,15.00
2008,05,16,09,07,15.00
2008,05,16,09,08,15.00
2008,05,16,09,09,15.00
2008,05,16,09,10,15.10
2008,05,16,09,11,15.20
2008,05,16,09,12,15.20
2008,05,16,09,13,15.20
2008,05,16,09,14,15.20
2008,05,16,09,15,15.20
2008,05,16,09,16,15.20
2008,05,16,09,17,15.20
2008,05,16,09,18,15.30
2008,05,16,09,19,15.30
2008,05,16,09,20,15.30
2008,05,16,09,21,15.30
2008,05,16,09,22,15.40
2008,05,16,09,23,15.40
2008,05,16,09,24,15.40
2008,05,16,09,25,15.50
2008,05,16,09,26,15.60
2008,05,16,09,27,15.60
2008,05,16,09,28,15.70
2008,05,16,09,29,15.80
2008,05,16,09,30,15.90
2008,05,16,09,31,16.00
2008,05,16,09,32,16.10
2008,05,16,09,33,16.20
2008,05,16,09,34,16.30
2008,05,16,09,35,16.40
2008,05,16,09,36,16.50
2008,05,16,09,37,16.60
2008,05,16,09,38,16.70
2008,05,16,09,39,16.70
2008,05,16,09,40,16.70
2008,05,16,09,41,16.70
2008,05,16,09,42,16.70
2008,05,16,09,43,16.70
2008,05,16,09,44,16.70
2008,05,16,09,45,16.70
2008,05,16,09,46,16.70
2008,05,16,09,47,16.70
2008,05,16,09,48,16.70
2008,05,16,09,49,16.80
2008,05,16,09,50,16.90
2008,05,16,09,51,17.00
2008,05,16,09,52,17.10
2008,05,16,09,53,17.10
2008,05,16,09,54,17.20
2008,05,16,09,55,17.20
2008,05,16,09,56,17.20
2008,05,16,09,57,17.30
2008,05,16,09,58,17.30
2008,05,16,09,59,17.30
2008,05,16,10,00,17.40
2008,05,16,10,01,17.50
2008,05,16,10,02,17.50
2008,05,16,10,03,17.60
2008,05,16,10,04,17.70
2008,05,16,10,05,17.80
2008,05,16,10,06,17.80
2008,05,16,10,07,17.90
2008,05,16,10,08,18.00
2008,05,16,10,09,18.00
2008,05,16,10,10,18.10
2008,05,16,10,11,18.20
2008,05,16,10,12,18.20
2008,05,16,10,13,18.20
2008,05,16,10,14,18.30
2008,05,16,10,15,18.40
2008,05,16,10,16,18.60
2008,05,16,10,17,18.60
2008,05,16,10,18,18.70
2008,05,16,10,19,18.70
2008,05,16,10,20,18.80
2008,05,16,10,21,18.80
2008,05,16,10,22,18.80
2008,05,16,10,23,18.90
2008,05,16,10,24,19.00
2008,05,16,10,25,19.00
2008,05,16,10,26,19.10
2008,05,16,10,27,19.10
2008,05,16,10,28,19.20
2008,05,16,10,29,19.20
2008,05,16,10,30,19.30
2008,05,16,10,31,19.40
2008,05,16,10,32,19.40
2008,05,16,10,33,19.40
2008,05,16,10,34,19.30
2008,05,16,10,35,19.30
2008,05,16,10,36,19.30
2008,05,16,10,37,19.30
2008,05,16,10,38,19.30
2008,05,16,10,39,19.40
2008,05,16,10,40,19.50
2008,05,16,10,41,19.60
2008,05,16,10,42,19.70
2008,05,16,10,43,19.80
2008,05,16,10,44,19.90
2008,05,16,10,45,20.10
2008,05,16,10,46,20.20
2008,05,16,10,47,20.30
2008,05,16,10,48,20.50
2008,05,16,10,49,20.50
2008,05,16,10,50,20.60
2008,05,16,10,51,20.60
2008,05,16,10,52,20.70
2008,05,16,10,53,20.70
2008,05,16,10,54,20.80
2008,05,16,10,55,20.90
2008,05,16,10,56,20.90
2008,05,16,10,57,20.90
2008,05,16,10,58,21.00
2008,05,16,10,59,21.10
2008,05,16,11,00,21.20
2008,05,16,11,01,21.20
2008,05,16,11,02,21.30
2008,05,16,11,03,21.40
2008,05,16,11,04,21.50
2008,05,16,11,05,21.60
2008,05,16,11,06,21.70
2008,05,16,11,07,21.80
2008,05,16,11,08,22.00
2008,05,16,11,09,22.00
2008,05,16,11,10,22.10
2008,05,16,11,11,22.20
2008,05,16,11,12,22.20
2008,05,16,11,13,22.20
2008,05,16,11,14,22.30
2008,05,16,11,15,22.30
2008,05,16,11,16,22.40
2008,05,16,11,17,22.40
2008,05,16,11,18,22.50
2008,05,16,11,19,22.60
2008,05,16,11,20,22.70
2008,05,16,11,21,22.80
2008,05,16,11,22,22.80
2008,05,16,11,23,22.90
2008,05,16,11,24,22.90
2008,05,16,11,25,22.90
2008,05,16,11,26,22.90
2008,05,16,11,27,23.00
2008,05,16,11,28,23.10
2008,05,16,11,29,23.10
2008,05,16,11,30,23.20
2008,05,16,11,31,23.20
2008,05,16,11,32,23.30
2008,05,16,11,33,23.40
2008,05,16,11,34,23.40
2008,05,16,11,35,23.50
2008,05,16,11,36,23.60
2008,05,16,11,37,23.60
2008,05,16,11,38,23.60
2008,05,16,11,39,23.60
2008,05,16,11,40,23.60
2008,05,16,11,41,23.70
2008,05,16,11,42,23.70
2008,05,16,11,43,23.70
2008,05,16,11,44,23.70
2008,05,16,11,45,23.70
2008,05,16,11,46,23.70
2008,05,16,11,47,23.80
2008,05,16,11,48,23.90
2008,05,16,11,49,23.80
2008,05,16,11,50,23.80
2008,05,16,11,51,23.80
2008,05,16,11,52,23.80
2008,05,16,11,53,23.80
2008,05,16,11,54,23.80
2008,05,16,11,55,23.70
2008,05,16,11,56,23.70
2008,05,16,11,57,23.70
2008,05,16,11,58,23.70
2008,05,16,11,59,23.80
2008,05,16,12,00,23.80
2008,05,16,12,01,23.90
2008,05,16,12,02,23.90
2008,05,16,12,03,24.00
2008,05,16,12,04,24.00
2008,05,16,12,05,24.10
2008,05,16,12,06,24.20
2008,05,16,12,07,24.20
2008,05,16,12,08,24.30
2008,05,16,12,09,24.40
2008,05,16,12,10,24.50
2008,05,16,12,11,24.50
2008,05,16,12,12,24.60
2008,05,16,12,13,24.70
2008,05,16,12,14,24.70
2008,05,16,12,15,24.80
2008,05,16,12,16,24.90
2008,05,16,12,17,25.00
2008,05,16,12,18,25.00
2008,05,16,12,19,25.10
2008,05,16,12,20,25.10
2008,05,16,12,21,25.20
2008,05,16,12,22,25.20
2008,05,16,12,23,25.10
2008,05,16,12,24,25.20
2008,05,16,12,25,25.20
2008,05,16,12,26,25.10
2008,05,16,12,27,25.00
2008,05,16,12,28,25.00
2008,05,16,12,29,25.00
2008,05,16,12,30,25.10
2008,05,16,12,31,25.10
2008,05,16,12,32,25.10
2008,05,16,12,33,25.20
2008,05,16,12,34,25.20
2008,05,16,12,35,25.20
2008,05,16,12,36,25.30
2008,05,16,12,37,25.30
2008,05,16,12,38,25.30
2008,05,16,12,39,25.30
2008,05,16,12,40,25.30
2008,05,16,12,41,25.30
2008,05,16,12,42,25.20
2008,05,16,12,43,25.20
2008,05,16,12,44,25.20
2008,05,16,12,45,25.20
2008,05,16,12,46,25.20
2008,05,16,12,47,25.20
2008,05,16,12,48,25.20
2008,05,16,12,49,25.20
2008,05,16,12,50,25.20
2008,05,16,12,51,25.20
2008,05,16,12,52,25.10
2008,05,16,12,53,25.10
2008,05,16,12,54,25.00
2008,05,16,12,55,25.00
2008,05,16,12,56,25.00
2008,05,16,12,57,25.10
2008,05,16,12,58,25.10
2008,05,16,12,59,25.10
2008,05,16,13,00,25.10
2008,05,16,13,01,25.10
2008,05,16,13,02,25.20
2008,05,16,13,03,25.20
2008,05,16,13,04,25.20
2008,05,16,13,05,25.20
2008,05,16,13,06,25.30
2008,05,16,13,07,25.40
2008,05,16,13,08,25.40
2008,05,16,13,09,25.30
2008,05,16,13,10,25.20
2008,05,16,13,11,25.20
2008,05,16,13,12,25.20
2008,05,16,13,13,25.20
2008,05,16,13,14,25.20
2008,05,16,13,15,25.20
2008,05,16,13,16,25.30
2008,05,16,13,17,25.30
2008,05,16,13,18,25.30
2008,05,16,13,19,25.30
2008,05,16,13,20,25.30
2008,05,16,13,21,25.30
2008,05,16,13,22,25.30
2008,05,16,13,23,25.20
2008,05,16,13,24,25.20
2008,05,16,13,25,25.10
2008,05,16,13,26,25.00
2008,05,16,13,27,25.00
2008,05,16,13,28,25.00
2008,05,16,13,29,25.00
2008,05,16,13,30,25.00
2008,05,16,13,31,24.90
2008,05,16,13,32,24.90
2008,05,16,13,33,24.90
2008,05,16,13,34,24.80
2008,05,16,13,35,24.80
2008,05,16,13,36,24.80
2008,05,16,13,37,24.80
2008,05,16,13,38,24.80
2008,05,16,13,39,24.70
2008,05,16,13,40,24.70
2008,05,16,13,41,24.70
2008,05,16,13,42,24.60
2008,05,16,13,43,24.70
2008,05,16,13,44,24.70
2008,05,16,13,45,24.70
2008,05,16,13,46,24.70
2008,05,16,13,47,24.70
2008,05,16,13,48,24.80
2008,05,16,13,49,24.80
2008,05,16,13,50,24.80
2008,05,16,13,51,24.80
2008,05,16,13,52,24.70
2008,05,16,13,53,24.70
2008,05,16,13,54,24.70
2008,05,16,13,55,24.70
2008,05,16,13,56,24.70
2008,05,16,13,57,24.70
2008,05,16,13,58,24.70
2008,05,16,13,59,24.70
2008,05,16,14,00,24.70
2008,05,16,14,01,24.60
2008,05,16,14,02,24.60
2008,05,16,14,03,24.50
2008,05,16,14,04,24.50
2008,05,16,14,05,24.40
2008,05,16,14,06,24.40
2008,05,16,14,07,24.40
2008,05,16,14,08,24.40
2008,05,16,14,09,24.40
2008,05,16,14,10,24.40
2008,05,16,14,11,24.50
2008,05,16,14,12,24.50
2008,05,16,14,13,24.50
2008,05,16,14,14,24.50
2008,05,16,14,15,24.60
2008,05,16,14,16,24.60
2008,05,16,14,17,24.70
2008,05,16,14,18,24.60
2008,05,16,14,19,24.60
2008,05,16,14,20,24.60
2008,05,16,14,21,24.60
2008,05,16,14,22,24.60
2008,05,16,14,23,24.50
2008,05,16,14,24,24.50
2008,05,16,14,25,24.50
2008,05,16,14,26,24.50
2008,05,16,14,27,24.50
2008,05,16,14,28,24.50
2008,05,16,14,29,24.50
2008,05,16,14,30,24.60
2008,05,16,14,31,24.60
2008,05,16,14,32,24.60
2008,05,16,14,33,24.70
2008,05,16,14,34,24.70
2008,05,16,14,35,24.70
2008,05,16,14,36,24.70
2008,05,16,14,37,24.70
2008,05,16,14,38,24.70
2008,05,16,14,39,24.70
2008,05,16,14,40,24.70
2008,05,16,14,41,24.60
2008,05,16,14,42,24.60
2008,05,16,14,43,24.60
2008,05,16,14,44,24.60
2008,05,16,14,45,24.50
2008,05,16,14,46,24.50
2008,05,16,14,47,24.50
2008,05,16,14,48,24.50
2008,05,16,14,49,24.60
2008,05,16,14,50,24.60
2008,05,16,14,51,24.60
2008,05,16,14,52,24.60
2008,05,16,14,53,24.60
2008,05,16,14,54,24.70
2008,05,16,14,55,24.70
2008,05,16,14,56,24.70
2008,05,16,14,57,24.70
2008,05,16,14,58,24.80
2008,05,16,14,59,24.80
2008,05,16,15,00,24.90
2008,05,16,15,01,25.00
2008,05,16,15,02,25.10
2008,05,16,15,03,25.20
2008,05,16,15,04,25.30
2008,05,16,15,05,25.30
2008,05,16,15,06,25.40
2008,05,16,15,07,25.50
2008,05,16,15,08,25.50
2008,05,16,15,09,25.60
2008,05,16,15,10,25.60
2008,05,16,15,11,25.70
2008,05,16,15,12,25.70
2008,05,16,15,13,25.80
2008,05,16,15,14,25.80
2008,05,16,15,15,25.80
2008,05,16,15,16,25.90
2008,05,16,15,17,25.90
2008,05,16,15,18,25.90
2008,05,16,15,19,25.90
2008,05,16,15,20,25.90
2008,05,16,15,21,25.90
2008,05,16,15,22,25.80
2008,05,16,15,23,25.80
2008,05,16,15,24,25.80
2008,05,16,15,25,25.80
2008,05,16,15,26,25.90
2008,05,16,15,27,25.90
2008,05,16,15,28,26.00
2008,05,16,15,29,26.10
2008,05,16,15,30,26.20
2008,05,16,15,31,26.30
2008,05,16,15,32,26.30
2008,05,16,15,33,26.30
2008,05,16,15,34,26.30
2008,05,16,15,35,26.30
2008,05,16,15,36,26.30
2008,05,16,15,37,26.30
2008,05,16,15,38,26.30
2008,05,16,15,39,26.30
2008,05,16,15,40,26.30
2008,05,16,15,41,26.30
2008,05,16,15,42,26.30
2008,05,16,15,43,26.30
2008,05,16,15,44,26.30
2008,05,16,15,45,26.30
2008,05,16,15,46,26.30
2008,05,16,15,47,26.40
2008,05,16,15,48,26.40
2008,05,16,15,49,26.40
2008,05,16,15,50,26.40
2008,05,16,15,51,26.50
2008,05,16,15,52,26.60
2008,05,16,15,53,26.60
2008,05,16,15,54,26.70
2008,05,16,15,55,26.70
2008,05,16,15,56,26.80
2008,05,16,15,57,26.90
2008,05,16,15,58,27.00
2008,05,16,15,59,27.10
2008,05,16,16,00,27.20
2008,05,16,16,01,27.30
2008,05,16,16,02,27.30
2008,05,16,16,03,27.40
2008,05,16,16,04,27.50
2008,05,16,16,05,27.60
2008,05,16,16,06,27.60
2008,05,16,16,07,27.70
2008,05,16,16,08,27.80
2008,05,16,16,09,27.80
2008,05,16,16,10,27.80
2008,05,16,16,11,27.70
2008,05,16,16,12,27.70
2008,05,16,16,13,27.60
2008,05,16,16,14,27.60
2008,05,16,16,15,27.60
2008,05,16,16,16,27.60
2008,05,16,16,17,27.60
2008,05,16,16,18,27.60
2008,05,16,16,19,27.60
2008,05,16,16,20,27.60
2008,05,16,16,21,27.60
2008,05,16,16,22,27.70
2008,05,16,16,23,27.70
2008,05,16,16,24,27.80
2008,05,16,16,25,27.80
2008,05,16,16,26,27.90
2008,05,16,16,27,28.00
2008,05,16,16,28,28.00
2008,05,16,16,29,28.10
2008,05,16,16,30,28.10
2008,05,16,16,31,28.00
2008,05,16,16,32,28.00
2008,05,16,16,33,28.00
2008,05,16,16,34,27.90
2008,05,16,16,35,27.90
2008,05,16,16,36,27.80
2008,05,16,16,37,27.80
2008,05,16,16,38,27.80
2008,05,16,16,39,27.70
2008,05,16,16,40,27.70
2008,05,16,16,41,27.70
2008,05,16,16,42,27.80
2008,05,16,16,43,27.90
2008,05,16,16,44,28.00
2008,05,16,16,45,28.10
2008,05,16,16,46,28.20
2008,05,16,16,47,28.20
2008,05,16,16,48,28.30
2008,05,16,16,49,28.30
2008,05,16,16,50,28.20
2008,05,16,16,51,28.20
2008,05,16,16,52,28.20
2008,05,16,16,53,28.20
2008,05,16,16,54,28.20
2008,05,16,16,55,28.10
2008,05,16,16,56,28.10
2008,05,16,16,57,28.10
2008,05,16,16,58,28.10
2008,05,16,16,59,28.20
2008,05,16,17,00,28.20
2008,05,16,17,01,28.30
2008,05,16,17,02,28.30
2008,05,16,17,03,28.30
2008,05,16,17,04,28.30
2008,05,16,17,05,28.40
2008,05,16,17,06,28.40
2008,05,16,17,07,28.30
2008,05,16,17,08,28.30
2008,05,16,17,09,28.30
2008,05,16,17,10,28.30
2008,05,16,17,11,28.30
2008,05,16,17,12,28.30
2008,05,16,17,13,28.30
2008,05,16,17,14,28.30
2008,05,16,17,15,28.30
2008,05,16,17,16,28.40
2008,05,16,17,17,28.40
2008,05,16,17,18,28.40
2008,05,16,17,19,28.40
2008,05,16,17,20,28.40
2008,05,16,17,21,28.40
2008,05,16,17,22,28.40
2008,05,16,17,23,28.30
2008,05,16,17,24,28.30
2008,05,16,17,25,28.30
2008,05,16,17,26,28.30
2008,05,16,17,27,28.30
2008,05,16,17,28,28.30
2008,05,16,17,29,28.30
2008,05,16,17,30,28.30
2008,05,16,17,31,28.30
2008,05,16,17,32,28.30
2008,05,16,17,33,28.30
2008,05,16,17,34,28.40
2008,05,16,17,35,28.40
2008,05,16,17,36,28.40
2008,05,16,17,37,28.40
2008,05,16,17,38,28.40
2008,05,16,17,39,28.40
2008,05,16,17,40,28.40
2008,05,16,17,41,28.40
2008,05,16,17,42,28.40
2008,05,16,17,43,28.30
2008,05,16,17,44,28.30
2008,05,16,17,45,28.30
2008,05,16,17,46,28.30
2008,05,16,17,47,28.30
2008,05,16,17,48,28.30
2008,05,16,17,49,28.30
2008,05,16,17,50,28.30
2008,05,16,17,51,28.30
2008,05,16,17,52,28.30
2008,05,16,17,53,28.30
2008,05,16,17,54,28.30
2008,05,16,17,55,28.30
2008,05,16,17,56,28.30
2008,05,16,17,57,28.30
2008,05,16,17,58,28.40
2008,05,16,17,59,28.40
2008,05,16,18,00,28.50
2008,05,16,18,01,28.50
2008,05,16,18,02,28.50
2008,05,16,18,03,28.50
2008,05,16,18,04,28.50
2008,05,16,18,05,28.60
2008,05,16,18,06,28.60
2008,05,16,18,07,28.50
2008,05,16,18,08,28.50
2008,05,16,18,09,28.50
2008,05,16,18,10,28.50
2008,05,16,18,11,28.50
2008,05,16,18,12,28.50
2008,05,16,18,13,28.50
2008,05,16,18,14,28.50
2008,05,16,18,15,28.50
2008,05,16,18,16,28.50
2008,05,16,18,17,28.50
2008,05,16,18,18,28.60
2008,05,16,18,19,28.60
2008,05,16,18,20,28.60
2008,05,16,18,21,28.50
2008,05,16,18,22,28.40
2008,05,16,18,23,28.30
2008,05,16,18,24,28.30
2008,05,16,18,25,28.20
2008,05,16,18,26,28.10
2008,05,16,18,27,28.10